sat.trackr.live / text

‹ back to catalog

STARLINK-5360

NORAD 54846 · 2022-177AC

PAYLOAD ACTIVE UNKNOWN

§ Identity

Operator
Country
US
Launch date
2022-12-28
Launch site
AFETR
Launch vehicle
Mass (kg)
RCS (m²)

Purposes: comms

External: N2YO · Heavens-Above · Gunter

§ Orbital elements

Epoch: 2026-09-20T06:44:02.189760Z

Period
94.27 min
Inclination
43.0026°
Eccentricity
0.0000998
Mean motion
15.27574000 rev/d
Perigee alt
482.4 km
Apogee alt
483.8 km
Semi-major
6,861.2 km
B*
9.8778e-6
RAAN
113.6872°
Arg perigee
250.9840°
Mean anomaly
109.0904°
Rev number
20,672

§ Raw data

STARLINK-53601 54846U 22177AC  26263.28058090  .00000010  00000+0  98778-5 0  99912 54846  43.0026 113.6872 0000998 250.9840 109.0904 15.27574000206727

JSON: /api/v1/satellites/54846 · /tle

For live sub-satellite position, see the globe view (requires WebGL).

§ Visibility from observer

Set your observer location to see the next 7 days of passes ≥ 10°. The values pass through the URL so the page stays shareable.

No JS? Fill the form by hand. The geolocation button needs JavaScript.